Location: Cucq
(50.4773°N, 1.6202°E)
Time: 09:51:30
(UTC+00:00)

Cosmos 1503 Rocket - Pass Details

Date: 07 August 2020
Orbit: 753 x 790 km, 74.0° (Epoch: 20 September)

Event Time Altitude Azimuth Distance (km) Brightness Sun altitude
Exits shadow 00:56:44 48° 220° (SW) 1,025 4.2 -22.0°
Maximum altitude 00:58:14 77° 295° (WNW) 816 4.0 -21.9°
Drops below altitude 10° 01:03:38 10° 22° (NNE) 2,364 7.7 -21.7°
Sets 01:06:02 0° 24° (NNE) 3,294 8.8 -21.6°
